Dubuque, IA

6:43 PM CST on November 21, 2019 (GMT -0600)
Dubuque Regional

Weather History for KDBQ - September, 2019

Change the Weather History Date:

Friday, September 6, 2019

  Actual Average Record
Temperature  
Mean Temperature 64 °F 66 °F  
Max Temperature 75 °F 76 °F 99 °F (1922)
Min Temperature 53 °F 56 °F 38 °F (1988)
Degree Days  
Heating Degree Days 1 2  
Month to date heating degree days 12 12  
Since 1 July heating degree days 21 39  
Cooling Degree Days 0 3  
Month to date cooling degree days 14 21  
Year to date cooling degree days 587 597  
Growing Degree Days 14 (Base 50)    
Moisture  
Dew Point 59 °F    
Average Humidity 74    
Maximum Humidity 90    
Minimum Humidity 61    
Precipitation  
Precipitation 0.00 in 0.12 in 1.55 in (1970)
Month to date precipitation 0.35 0.72  
Year to date precipitation 31.48 26.70  
Sea Level Pressure  
Sea Level Pressure 30.02 in    
Wind  
Wind Speed 13 mph ()    
Max Wind Speed 25 mph    
Max Gust Speed 33 mph    
Visibility 10.0 miles    
Events      
T = Trace of Precipitation, MM = Missing Value Source: Averaged Metar Reports

Daily Weather History Graph

Daily Weather History Graph

Search for Another Location

Airport or City:

Astronomy

Sep. 06, 2019 Rise Set
Actual Time 6:33 AM CDT 7:28 PM CDT
Civil Twilight 6:04 AM CDT 7:57 PM CDT
Nautical Twilight 5:30 AM CDT 8:31 PM CDT
Astronomical Twilight 4:54 AM CDT 9:06 PM CDT
Moon 2:50 PM CDT (9/6) No Moon Set
Length of Visible Light 13h 52m
Length of Day
12h 55m
First Quarter, 56% of the Moon is Illuminated
Sep 6
First Quarter
Sep 13
Full
Sep 21
Last Quarter
Sep 28
New
Oct 5
First Quarter

Hourly Weather History & Observations

Time (CDT) Temp. Dew Point Humidity Pressure Visibility Wind Dir Wind Speed Gust Speed Precip Events Conditions
12:53 AM 66.9 °F 63.0 °F 87% 29.92 in 10.0 mi SSW 10.4 mph - N/A   Mostly Cloudy
7:53 AM 64.9 °F 61.0 °F 87% 29.96 in 10.0 mi NNW 15.0 mph 25.3 mph N/A   Overcast
8:53 AM 68.0 °F 60.1 °F 76% 29.96 in 10.0 mi NNW 19.6 mph 33.4 mph N/A   Clear
9:53 AM 70.0 °F 60.1 °F 71% 29.97 in 10.0 mi North 19.6 mph 32.2 mph N/A   Partly Cloudy
10:53 AM 71.1 °F 60.1 °F 68% 30.00 in 10.0 mi North 18.4 mph 28.8 mph N/A   Scattered Clouds
11:09 AM 72.0 °F 60.1 °F 66% 30.01 in 10.0 mi NNW 19.6 mph 26.5 mph N/A   Mostly Cloudy
11:53 AM 71.1 °F 61.0 °F 70% 30.02 in 10.0 mi NNW 18.4 mph 25.3 mph N/A   Mostly Cloudy
12:07 PM 73.0 °F 61.0 °F 66% 30.02 in 10.0 mi North 18.4 mph 28.8 mph N/A   Scattered Clouds
12:53 PM 73.9 °F 61.0 °F 64% 30.01 in 10.0 mi North 17.3 mph 27.6 mph N/A   Partly Cloudy
1:53 PM 73.9 °F 61.0 °F 64% 30.02 in 10.0 mi NNW 16.1 mph - N/A   Partly Cloudy
2:53 PM 73.9 °F 60.1 °F 62% 30.03 in 10.0 mi NNW 12.7 mph - N/A   Partly Cloudy
3:53 PM 73.0 °F 59.0 °F 61% 30.02 in 10.0 mi NNW 16.1 mph 26.5 mph N/A   Clear
4:53 PM 72.0 °F 59.0 °F 64% 30.03 in 10.0 mi North 13.8 mph - N/A   Clear
5:53 PM 71.1 °F 59.0 °F 66% 30.04 in 10.0 mi North 15.0 mph - N/A   Clear
6:53 PM 68.0 °F 57.9 °F 70% 30.06 in 10.0 mi NNW 8.1 mph - N/A   Clear
7:53 PM 63.0 °F 57.0 °F 81% 30.07 in 10.0 mi NNW 6.9 mph - N/A   Clear
8:53 PM 61.0 °F 55.9 °F 83% 30.09 in 10.0 mi NNW 5.8 mph - N/A   Clear
9:53 PM 61.0 °F 57.0 °F 87% 30.09 in 10.0 mi North 9.2 mph - N/A   Clear
10:53 PM 59.0 °F 55.9 °F 90% 30.09 in 10.0 mi North 5.8 mph - N/A   Clear
11:53 PM 60.1 °F 57.0 °F 90% 30.09 in 10.0 mi NNE 4.6 mph - N/A   Clear